IRIDE-MS2-HEO-1

operational
NORAD ID: 62697 Int'l Des: 2025-009 Owner: ASI/ARGOT Country: I
LEOCIRCULARRETROGRADESSO

关于 IRIDE-MS2-HEO-1

正在加载描述...

实时位置

正在加载3D地球...

即将过境

高度历史

Altitude vs Time

uPlot chart will show altitude changes over time

两行轨道根数

1 62697U 25009CS 25340.93554020 .00003885 00000-0 37503-3 0 9993
2 62697 97.7234 57.7619 0001200 306.0128 54.0980 14.93429632 48632
Epoch: Dec 6, 2025 • Age: 9 hours

当前状态

高度 590.6 km
速度 7.56 km/s
星下点 1.51°N, 52.67°E
发射日期 Jan 14, 2025
运行时间 0.8 years
类型 other

技术详情

分类 Payload
质量 65.00 kg
干质量 65.00 kg
总质量 65.00 kg
长度 0.70 m
直径 0.50 m
跨度 2.00 m
形状 Box+2 pan
制造商 ARGOT
平台类型 HAWK
阶段状态 In Orbit
所有者/国家 ASI/ARGOT/I

大型星座

Loading constellations...